Terug naar catalogus

METEOR 2-8 DEB

ActiefPO
NORAD 36349·DEBRIS·🇷🇺 Russia

Gelanceerd Mar 25, 1982 vanaf Plesetsk Cosmodrome

Loading…

Volgende Passages (komende 24 uur)

TLE

VersSource: Space-Track

Epoch: Sep 13, 2026, 03:59 UTC

1 36349U 82025AK  26256.16649523  .00004653  00000-0  13863-2 0  9990
2 36349  82.5007  56.8934 0013986 258.2737 101.6886 14.42899872219562

Volg METEOR 2-8 DEB in realtime met AllMySat

Download on the App Store